1486231200.64,3099,11.19,72408.0,-6.55,-34.19,-34.19,0,*65
1486231201.88,3100,11.19,72408.5,-6.53,-34.13,-34.35,0,*66
1486231203.1,3101,11.19,72404.8,-6.53,-34.13,-34.41,0,*64
1486231204.33,3102,11.19,72402.5,-6.55,-34.13,-34.35,0,*62
1486231205.58,3103,11.19,72398.8,-6.53,-34.13,-34.35,0,*65
1486231206.83,3104,11.19,72400.5,-6.53,-34.13,-34.19,0,*6C
1486231208.08,3105,11.19,72400.8,-6.53,-34.25,-34.53,0,*66
1486231209.3,3106,11.19,72398.0,-6.53,-34.41,-34.59,0,*6D
1486231210.57,3107,11.19,72402.8,-6.53,-34.19,-34.35,0,*6B
1486231211.8,3108,11.19,72398.8,-6.55,-34.19,-34.41,0,*61
1486231212.99,3109,11.19,72400.5,-6.55,-34.25,-34.41,0,*6F
1486231214.23,3110,11.19,72404.8,-6.51,-34.19,-34.47,0,*6A
1486231215.48,3111,11.19,72410.0,-6.51,-34.31,-34.53,0,*64
1486231216.73,3112,11.19,72402.0,-6.53,-34.35,-34.71,0,*61
1486231217.99,3113,11.19,72408.3,-6.53,-34.25,-34.53,0,*61
1486231219.26,3114,11.19,72402.8,-6.53,-34.19,-34.35,0,*69
1486231220.51,3115,11.19,72400.3,-6.53,-34.35,-34.71,0,*66
1486231221.74,3116,11.19,72402.3,-6.55,-34.35,-34.71,0,*63
1486231222.97,3117,11.19,72402.5,-6.53,-34.41,-34.71,0,*67
1486231224.19,3118,11.19,72404.0,-6.53,-34.41,-34.71,0,*68
1486231225.42,3119,11.19,72398.8,-6.53,-34.59,-34.77,0,*66
1486231226.63,3120,11.19,72400.3,-6.55,-34.59,-34.89,0,*6B
1486231227.87,3121,11.19,72406.5,-6.55,-34.53,-34.77,0,*61
1486231229.11,3122,11.19,72404.3,-6.55,-34.53,-34.71,0,*64
1486231230.34,3123,11.19,72400.5,-6.55,-34.35,-34.59,0,*6F
1486231231.6,3124,11.19,72400.8,-6.55,-34.35,-34.53,0,*62
1486231232.85,3125,11.19,72406.0,-6.53,-34.35,-34.71,0,*65
1486231234.08,3126,11.25,72406.8,-6.55,-34.35,-34.71,0,*60
1486231235.28,3127,11.19,72400.8,-6.55,-34.41,-34.59,0,*68
1486231236.49,3128,11.19,72400.8,-6.55,-34.41,-34.71,0,*6D
1486231237.69,3129,11.19,72404.0,-6.55,-34.41,-34.59,0,*66
1486231238.89,3130,11.19,72406.5,-6.55,-34.41,-34.59,0,*6E
1486231240.13,3131,11.19,72404.5,-6.55,-34.35,-34.59,0,*6C
1486231241.36,3132,11.19,72412.8,-6.55,-34.35,-34.59,0,*6F
1486231242.56,3133,11.19,72416.5,-6.55,-34.25,-34.59,0,*6F
1486231243.76,3134,11.19,72410.3,-6.55,-34.25,-34.41,0,*61
1486231245.02,3135,11.19,72410.5,-6.55,-34.35,-34.53,0,*62
1486231246.22,3136,11.19,72406.3,-6.55,-34.41,-34.71,0,*62
1486231247.42,3137,11.19,72406.8,-6.55,-34.41,-34.71,0,*63
1486231248.63,3138,11.19,72410.8,-6.55,-34.41,-34.77,0,*6A
1486231249.83,3139,11.19,72412.0,-6.55,-34.25,-34.59,0,*65
1486231251.06,3140,11.19,72410.3,-6.55,-34.35,-34.59,0,*6A
1486231252.3,3141,11.19,72400.3,-6.55,-34.53,-34.71,0,*61
1486231253.53,3142,11.19,72402.0,-6.55,-34.35,-34.59,0,*68
1486231254.76,3143,11.19,72402.3,-6.55,-34.35,-34.59,0,*69
1486231255.99,3144,11.19,72404.3,-6.55,-34.19,-34.59,0,*60
1486231257.22,3145,11.19,72404.5,-6.55,-34.19,-34.41,0,*68
1486231258.47,3146,11.19,72416.3,-6.55,-34.19,-34.19,0,*66
1486231259.72,3147,11.19,72412.8,-6.57,-34.07,-34.19,0,*6A
1486231260.92,3148,11.19,72406.5,-6.55,-33.95,-33.95,0,*68
1486231262.15,3149,11.19,72412.8,-6.55,-34.13,-34.35,0,*6D
1486231263.35,3150,11.19,72414.5,-6.55,-33.95,-34.13,0,*68
1486231264.58,3151,11.19,72416.0,-6.55,-34.13,-34.19,0,*6A
1486231265.8,3152,11.19,72416.3,-6.55,-34.13,-34.19,0,*69
1486231267.05,3153,11.19,72418.3,-6.53,-34.13,-34.19,0,*6E
1486231268.31,3154,11.19,72424.0,-6.55,-34.35,-34.53,0,*65
1486231269.54,3155,11.19,72420.8,-6.55,-34.25,-34.53,0,*65
1486231270.79,3156,11.19,72416.5,-6.55,-34.19,-34.35,0,*69
1486231272.0,3157,11.19,72418.8,-6.55,-34.13,-34.13,0,*66
1486231273.23,3158,11.19,72418.5,-6.55,-34.13,-34.19,0,*63
1486231274.47,3159,11.19,72408.0,-6.53,-34.13,-34.35,0,*6A
1486231275.72,3160,11.19,72418.3,-6.53,-34.13,-34.19,0,*6E
1486231276.97,3161,11.19,72416.3,-6.53,-34.01,-34.13,0,*66
1486231278.2,3162,11.19,72412.3,-6.53,-34.13,-34.13,0,*66
1486231279.4,3163,11.19,72420.5,-6.55,-34.13,-34.41,0,*66
1486231280.65,3164,11.19,72418.3,-6.53,-34.13,-34.35,0,*64
1486231281.88,3165,11.19,72414.5,-6.55,-34.19,-34.13,0,*6D
1486231283.11,3166,11.19,72418.3,-6.55,-34.13,-34.35,0,*60
1486231284.33,3167,11.19,72410.0,-6.53,-34.13,-34.13,0,*63
1486231285.56,3168,11.19,72408.5,-6.55,-34.13,-34.35,0,*6E
1486231286.81,3169,11.19,72406.0,-6.53,-34.25,-34.53,0,*6C
1486231288.06,3170,11.19,72404.0,-6.53,-34.19,-34.59,0,*61
1486231289.31,3171,11.19,72400.0,-6.51,-34.19,-34.35,0,*68
1486231290.56,3172,11.19,72400.3,-6.53,-34.19,-34.41,0,*6A
1486231291.76,3173,11.19,72398.5,-6.55,-34.13,-34.41,0,*67
1486231293.04,3174,11.19,72398.5,-6.53,-34.19,-34.53,0,*6F
1486231294.31,3175,11.19,72398.3,-6.53,-34.35,-34.53,0,*60
1486231295.57,3176,11.19,72396.0,-6.53,-34.35,-34.59,0,*69
1486231296.83,3177,11.19,72396.8,-6.55,-34.35,-34.53,0,*64
1486231298.08,3178,11.19,72400.8,-6.53,-34.25,-34.53,0,*6C
1486231299.35,3179,11.19,72402.0,-6.53,-34.19,-34.35,0,*62
1486231300.58,3180,11.19,72402.8,-6.55,-34.25,-34.53,0,*6D
1486231301.83,3181,11.19,72400.5,-6.51,-34.31,-34.53,0,*6D
1486231303.11,3182,11.19,72402.8,-6.53,-34.35,-34.53,0,*68
1486231304.35,3183,11.19,72404.0,-6.55,-34.53,-34.59,0,*65
1486231305.58,3184,11.19,72406.8,-6.55,-34.35,-34.59,0,*62
1486231306.81,3185,11.19,72404.8,-6.55,-34.35,-34.59,0,*63
1486231308.03,3186,11.19,72406.5,-6.53,-34.41,-34.71,0,*6F
1486231309.26,3187,11.19,72402.8,-6.53,-34.41,-34.77,0,*68
1486231310.49,3188,11.19,72400.0,-6.55,-34.35,-34.59,0,*6E
1486231311.72,3189,11.19,72402.0,-6.55,-34.35,-34.71,0,*65
1486231312.95,3190,11.19,72406.3,-6.55,-34.35,-34.59,0,*67
1486231314.19,3191,11.19,72400.5,-6.55,-34.35,-34.71,0,*6C
1486231315.41,3192,11.19,72396.3,-6.53,-34.41,-34.59,0,*60
1486231316.66,3193,11.19,72396.5,-6.53,-34.19,-34.41,0,*65
1486231317.91,3194,11.19,72400.5,-6.55,-34.19,-34.35,0,*67
1486231319.13,3195,11.19,72396.3,-6.55,-34.13,-34.35,0,*6C
1486231320.36,3196,11.19,72402.0,-6.53,-34.13,-34.13,0,*6D
1486231321.59,3197,11.19,72398.8,-6.55,-34.01,-34.13,0,*69
1486231322.84,3198,11.19,72400.3,-6.53,-34.13,-34.35,0,*67
1486231324.1,3199,11.19,72396.3,-6.55,-34.19,-34.53,0,*6A
1486231325.3,3200,11.19,72400.8,-6.55,-34.25,-34.41,0,*65
1486231326.54,3201,11.19,72396.8,-6.53,-34.19,-34.41,0,*6D
1486231327.79,3202,11.19,72392.3,-6.53,-34.13,-34.19,0,*69
1486231329.02,3203,11.19,72394.3,-6.53,-34.13,-34.13,0,*62
1486231330.27,3204,11.19,72394.0,-6.53,-34.01,-34.13,0,*66
1486231331.52,3205,11.19,72390.0,-6.53,-34.13,-34.35,0,*60
1486231332.76,3206,11.19,72392.0,-6.53,-34.13,-34.19,0,*6D
1486231334.01,3207,11.19,72386.5,-6.53,-34.19,-34.41,0,*6B
1486231335.27,3208,11.19,72392.5,-6.55,-34.19,-34.53,0,*61
1486231336.49,3209,11.19,72392.0,-6.53,-34.25,-34.59,0,*63
1486231337.74,3210,11.19,72392.3,-6.53,-34.25,-34.53,0,*61
1486231338.99,3211,11.19,72394.5,-6.53,-34.25,-34.53,0,*60
1486231340.25,3212,11.19,72390.3,-6.51,-34.35,-34.65,0,*65
1486231341.51,3213,11.19,72392.3,-6.51,-34.35,-34.65,0,*64
1486231342.73,3214,11.19,72394.3,-6.53,-34.41,-34.71,0,*67
1486231343.97,3215,11.19,72394.8,-6.55,-34.35,-34.71,0,*63
1486231345.19,3216,11.19,72398.8,-6.55,-34.19,-34.41,0,*6D
1486231346.44,3217,11.19,72402.3,-6.53,-34.19,-34.41,0,*6A
1486231347.66,3218,11.19,72402.3,-6.55,-34.13,-34.35,0,*6A
1486231348.91,3219,11.19,72400.0,-6.53,-34.19,-34.41,0,*64
1486231350.13,3220,11.19,72404.5,-6.53,-34.25,-34.71,0,*62
1486231351.36,3221,11.19,72398.5,-6.53,-34.41,-34.71,0,*61
1486231352.61,3222,11.19,72400.0,-6.55,-34.19,-34.53,0,*69
1486231353.84,3223,11.19,72402.5,-6.55,-34.19,-34.41,0,*6B
1486231355.07,3224,11.19,72400.3,-6.55,-34.35,-34.59,0,*6B
1486231356.27,3225,11.19,72404.5,-6.55,-34.41,-34.71,0,*63
1486231357.51,3226,11.19,72408.8,-6.55,-34.35,-34.59,0,*69
1486231358.71,3227,11.19,72400.5,-6.55,-34.13,-34.13,0,*62
1486231359.96,3228,11.19,72400.8,-6.53,-34.19,-34.41,0,*66
1486231361.19,3229,11.19,72400.3,-6.55,-34.25,-34.53,0,*6D
1486231362.42,3230,11.19,72398.0,-6.55,-34.25,-34.53,0,*65
1486231363.68,3231,11.19,72408.3,-6.55,-34.19,-34.53,0,*6B
1486231364.93,3232,11.19,72412.3,-6.55,-34.19,-34.35,0,*68
1486231366.21,3233,11.19,72410.5,-6.53,-34.19,-34.53,0,*6F
1486231367.45,3234,11.19,72410.8,-6.53,-34.19,-34.41,0,*6B
1486231368.7,3235,11.19,72400.5,-6.53,-34.13,-34.35,0,*63
1486231369.93,3236,11.19,72402.0,-6.55,-33.95,-34.01,0,*68
1486231371.18,3237,11.19,72398.8,-6.53,-34.01,-34.13,0,*66
1486231372.44,3238,11.19,72396.5,-6.55,-34.19,-34.53,0,*62
1486231373.66,3239,11.19,72398.3,-6.55,-34.19,-34.41,0,*60
1486231374.91,3240,11.19,72394.8,-6.53,-34.19,-34.41,0,*68
1486231376.13,3241,11.19,72392.3,-6.55,-34.19,-34.41,0,*6F
1486231377.36,3242,11.19,72398.0,-6.55,-34.19,-34.41,0,*6C
1486231378.61,3243,11.19,72398.0,-6.53,-34.25,-34.53,0,*67
1486231379.84,3244,11.19,72392.5,-6.55,-34.25,-34.53,0,*66
1486231381.08,3245,11.19,72394.3,-6.53,-34.19,-34.41,0,*6D
1486231382.36,3246,11.19,72392.0,-6.53,-34.01,-34.19,0,*6A
1486231383.58,3247,11.19,72390.0,-6.53,-34.13,-34.41,0,*65
1486231384.82,3248,11.19,72392.3,-6.53,-34.19,-34.41,0,*60
1486231386.1,3249,11.19,72394.3,-6.53,-34.19,-34.53,0,*62
1486231387.33,3250,11.19,72398.3,-6.53,-34.25,-34.59,0,*6F
1486231388.6,3251,11.19,72396.8,-6.53,-34.19,-34.35,0,*6B
1486231389.87,3252,11.19,72388.0,-6.53,-34.01,-34.35,0,*61
1486231391.1,3253,11.19,72390.5,-6.55,-34.19,-34.41,0,*6C
1486231392.32,3254,11.19,72392.3,-6.55,-34.19,-34.41,0,*6B
1486231393.56,3255,11.19,72394.8,-6.53,-34.19,-34.41,0,*6C
1486231394.82,3256,11.19,72398.3,-6.53,-34.25,-34.53,0,*63
1486231396.07,3257,11.19,72398.0,-6.53,-34.25,-34.53,0,*62
1486231397.31,3258,11.19,72400.3,-6.53,-34.19,-34.41,0,*61
1486231398.56,3259,11.19,72400.0,-6.53,-34.25,-34.53,0,*6C
1486231399.81,3260,11.19,72404.3,-6.53,-34.19,-34.59,0,*63
1486231401.07,3261,11.19,72406.8,-6.51,-34.19,-34.53,0,*6A
1486231402.32,3262,11.19,72402.5,-6.53,-34.35,-34.71,0,*65
1486231403.57,3263,11.19,72396.5,-6.53,-34.35,-34.71,0,*64
1486231404.78,3264,11.19,72400.3,-6.55,-34.25,-34.59,0,*6E
1486231405.99,3265,11.19,72400.0,-6.53,-34.25,-34.41,0,*60
1486231407.22,3266,11.19,72402.8,-6.55,-34.25,-34.53,0,*66
1486231408.43,3267,11.19,72402.8,-6.55,-34.41,-34.71,0,*65
1486231409.69,3268,11.19,72400.8,-6.53,-34.53,-34.77,0,*69
1486231410.92,3269,11.19,72402.5,-6.53,-34.59,-34.89,0,*63
1486231412.15,3270,11.19,72402.0,-6.55,-34.53,-34.89,0,*67
1486231413.39,3271,11.19,72400.8,-6.55,-34.53,-34.77,0,*67
1486231414.61,3272,11.19,72400.5,-6.53,-34.41,-34.71,0,*67
1486231415.84,3273,11.19,72402.5,-6.53,-34.41,-34.71,0,*66
1486231417.04,3274,11.19,72402.3,-6.55,-34.41,-34.71,0,*67
1486231418.27,3275,11.19,72400.5,-6.55,-34.35,-34.59,0,*6F
1486231419.48,3276,11.19,72400.0,-6.55,-34.41,-34.59,0,*6F
1486231420.68,3277,11.19,72398.0,-6.55,-34.41,-34.71,0,*64
1486231421.91,3278,11.19,72398.8,-6.55,-34.35,-34.71,0,*68
1486231423.12,3279,11.19,72394.8,-6.55,-34.41,-34.71,0,*6A
1486231424.35,3280,11.19,72392.0,-6.55,-34.35,-34.71,0,*6F
1486231425.61,3281,11.19,72394.8,-6.55,-34.35,-34.53,0,*6E
1486231426.86,3282,11.19,72398.3,-6.55,-34.19,-34.35,0,*63
1486231428.08,3283,11.19,72392.8,-6.55,-34.13,-34.19,0,*66
1486231429.34,3284,11.19,72392.0,-6.55,-34.01,-34.19,0,*62
1486231430.56,3285,11.19,72392.5,-6.55,-34.13,-34.35,0,*6E
1486231431.79,3286,11.19,72392.5,-6.55,-34.25,-34.53,0,*68
1486231433.05,3287,11.19,72398.0,-6.55,-34.19,-34.53,0,*66
1486231434.31,3288,11.19,72398.5,-6.55,-34.19,-34.53,0,*69
1486231435.56,3289,11.19,72394.0,-6.55,-34.19,-34.35,0,*68
1486231436.83,3290,11.19,72392.3,-6.53,-34.01,-34.19,0,*61
1486231438.08,3291,11.19,72394.5,-6.53,-34.13,-34.35,0,*6D
1486231439.33,3292,11.19,72394.8,-6.53,-34.13,-34.35,0,*6E
1486231440.53,3293,11.19,72398.0,-6.55,-34.41,-34.59,0,*64
1486231441.76,3294,11.19,72394.3,-6.55,-34.19,-34.41,0,*67
1486231442.98,3295,11.19,72392.5,-6.55,-34.19,-34.41,0,*66
1486231444.21,3296,11.19,72396.0,-6.55,-34.13,-34.35,0,*6C
1486231445.45,3297,11.19,72390.8,-6.53,-34.19,-34.41,0,*62
1486231446.68,3298,11.19,72384.0,-6.55,-34.13,-34.19,0,*6C
1486231447.93,3299,11.19,72392.8,-6.55,-34.01,-34.19,0,*6E
1486231449.16,3300,11.19,72384.8,-6.55,-34.13,-34.35,0,*62
1486231450.39,3301,11.19,72390.5,-6.55,-34.25,-34.53,0,*66
1486231451.62,3302,11.19,72396.8,-6.55,-33.95,-34.01,0,*6E
1486231452.85,3303,11.19,72398.0,-6.55,-34.13,-34.19,0,*6F
1486231454.12,3304,11.13,72394.0,-6.53,-34.19,-34.35,0,*6A
1486231455.35,3305,11.19,72402.8,-6.55,-34.01,-34.13,0,*60
1486231456.57,3306,11.19,72402.3,-6.53,-33.95,-34.13,0,*6F
1486231457.82,3307,11.19,72404.0,-6.53,-34.13,-34.19,0,*6D
1486231459.07,3308,11.19,72402.8,-6.53,-34.13,-34.19,0,*62
1486231460.32,3309,11.19,72400.0,-6.53,-34.13,-34.35,0,*6D
1486231461.56,3310,11.19,72398.8,-6.53,-34.13,-34.35,0,*65
1486231462.81,3311,11.19,72394.5,-6.53,-34.19,-34.41,0,*6D
1486231464.06,3312,11.19,72396.8,-6.53,-34.25,-34.53,0,*62
1486231465.3,3313,11.19,72392.8,-6.53,-34.19,-34.41,0,*6F
1486231466.55,3314,11.19,72400.8,-6.53,-34.25,-34.53,0,*64
1486231467.78,3315,11.19,72404.0,-6.53,-34.25,-34.59,0,*6F
1486231469.03,3316,11.19,72402.5,-6.53,-34.25,-34.53,0,*66
1486231470.25,3317,11.19,72400.0,-6.53,-34.41,-34.71,0,*65
1486231471.48,3318,11.19,72398.3,-6.53,-34.59,-34.89,0,*64
1486231472.71,3319,11.19,72396.8,-6.53,-34.59,-34.89,0,*65
1486231473.92,3320,11.19,72400.3,-6.55,-34.71,-34.89,0,*63
1486231475.16,3321,11.19,72404.5,-6.53,-34.59,-34.77,0,*6F
1486231476.39,3322,11.19,72402.8,-6.55,-34.53,-34.77,0,*60
1486231477.63,3323,11.19,72404.5,-6.55,-34.53,-34.77,0,*61
1486231478.88,3324,11.19,72400.5,-6.53,-34.35,-34.59,0,*6C
1486231480.14,3325,11.13,72402.5,-6.53,-34.53,-34.71,0,*67
1486231481.34,3326,11.13,72406.0,-6.55,-34.41,-34.71,0,*61
1486231482.54,3327,11.19,72406.0,-6.55,-34.25,-34.41,0,*61
1486231483.81,3328,11.13,72400.5,-6.53,-34.19,-34.35,0,*64
1486231485.06,3329,11.19,72404.3,-6.55,-34.19,-34.35,0,*63
1486231486.29,3330,11.19,72402.5,-6.55,-34.25,-34.53,0,*64
1486231487.54,3331,11.19,72404.0,-6.53,-34.35,-34.59,0,*68
1486231488.8,3332,11.19,72406.0,-6.53,-34.35,-34.59,0,*6B
1486231490.0,3333,11.19,72402.8,-6.55,-34.41,-34.59,0,*6F
1486231491.23,3334,11.19,72406.5,-6.55,-34.35,-34.59,0,*6B
1486231492.43,3335,11.19,72400.5,-6.55,-34.25,-34.59,0,*6B
1486231493.66,3336,11.13,72404.0,-6.55,-34.19,-34.41,0,*6E
1486231494.91,3337,11.19,72406.3,-6.55,-34.19,-34.19,0,*62
1486231496.13,3338,11.19,72400.8,-6.55,-34.19,-34.41,0,*60
1486231497.41,3339,11.19,72404.5,-6.53,-34.19,-34.53,0,*64
1486231498.66,3340,11.19,72404.8,-6.53,-34.35,-34.41,0,*67
1486231499.86,3341,11.19,72404.0,-6.55,-34.41,-34.71,0,*60
1486231501.1,3342,11.19,72402.3,-6.55,-34.53,-34.71,0,*60
1486231502.3,3343,11.19,72406.8,-6.55,-34.41,-34.71,0,*62
1486231503.53,3344,11.19,72408.8,-6.55,-34.35,-34.59,0,*6C
1486231504.76,3345,11.19,72412.0,-6.55,-34.19,-34.41,0,*6A
1486231506.01,3346,11.19,72404.3,-6.53,-34.25,-34.53,0,*63
1486231507.24,3347,11.19,72412.5,-6.55,-34.25,-34.53,0,*64
1486231508.44,3348,11.19,72412.0,-6.55,-34.25,-34.59,0,*61
1486231509.64,3349,11.19,72410.0,-6.55,-34.41,-34.71,0,*68
1486231510.87,3350,11.13,72410.8,-6.53,-34.59,-34.89,0,*68
1486231512.11,3351,11.13,72410.5,-6.57,-34.41,-34.77,0,*65
1486231513.34,3352,11.19,72410.8,-6.55,-34.35,-34.71,0,*61
1486231514.54,3353,11.19,72410.0,-6.55,-34.41,-34.71,0,*63
1486231515.77,3354,11.13,72406.5,-6.55,-34.25,-34.53,0,*66
1486231517.01,3355,11.19,72408.5,-6.57,-34.47,-34.77,0,*67
1486231518.31,3356,11.19,72412.0,-6.57,-34.65,-34.95,0,*68
1486231519.59,3357,11.19,72416.8,-6.57,-34.65,-34.83,0,*6E
1486231520.82,3358,11.19,72414.8,-6.59,-34.77,-34.83,0,*6C
1486231522.06,3359,11.19,72408.3,-6.57,-34.47,-34.77,0,*6B
1486231523.32,3360,11.19,72406.3,-6.57,-34.25,-34.65,0,*66
1486231524.53,3361,11.19,72402.0,-6.59,-34.41,-34.77,0,*68
1486231525.76,3362,11.19,72408.5,-6.59,-34.41,-34.65,0,*68
1486231527.0,3363,11.19,72408.3,-6.57,-34.41,-34.77,0,*64
1486231528.23,3364,11.19,72410.3,-6.59,-34.41,-34.65,0,*6E
1486231529.46,3365,11.19,72410.3,-6.59,-34.59,-34.83,0,*6E
1486231530.68,3366,11.19,72408.3,-6.59,-34.47,-34.77,0,*69
1486231531.88,3367,11.19,72414.5,-6.59,-34.41,-34.59,0,*62
1486231533.12,3368,11.13,72412.5,-6.59,-34.31,-34.59,0,*6A
1486231534.33,3369,11.13,72404.5,-6.59,-34.47,-34.77,0,*66
1486231535.56,3370,11.19,72402.8,-6.55,-34.35,-34.59,0,*6B
1486231536.8,3371,11.19,72404.8,-6.57,-34.25,-34.47,0,*66
1486231538.0,3372,11.19,72408.3,-6.59,-34.25,-34.59,0,*64
1486231539.26,3373,11.13,72404.3,-6.57,-34.31,-34.47,0,*61
1486231540.46,3374,11.13,72404.0,-6.59,-34.25,-34.41,0,*6B
1486231541.69,3375,11.19,72410.8,-6.57,-34.25,-34.47,0,*62
1486231542.92,3376,11.19,72414.0,-6.59,-34.31,-34.59,0,*65
1486231544.14,3377,11.13,72410.8,-6.59,-34.47,-34.77,0,*69
1486231545.36,3378,11.13,72406.0,-6.59,-34.19,-34.25,0,*6A
1486231546.62,3379,11.19,72404.5,-6.59,-34.01,-34.01,0,*64
1486231547.88,3380,11.19,72406.8,-6.59,-33.89,-33.89,0,*62
1486231549.1,3381,11.13,72404.8,-6.57,-34.07,-34.25,0,*6D
1486231550.39,3382,11.19,72396.0,-6.57,-33.73,-33.89,0,*6B
1486231551.62,3383,11.13,72394.5,-6.57,-33.83,-33.83,0,*6F
1486231552.88,3384,11.13,72388.3,-6.57,-33.73,-33.83,0,*67
1486231554.12,3385,11.13,72388.0,-6.55,-33.49,-33.67,0,*67
1486231555.37,3386,11.13,72380.8,-6.55,-33.61,-33.77,0,*6F
1486231556.57,3387,11.19,72386.3,-6.55,-33.83,-33.83,0,*69
1486231557.8,3388,11.19,72390.3,-6.53,-34.13,-34.13,0,*60
1486231559.03,3389,11.19,72386.8,-6.55,-34.13,-34.35,0,*63
1486231560.26,3390,11.19,72388.8,-6.55,-34.13,-34.19,0,*65
1486231561.48,3391,11.19,72394.3,-6.55,-34.13,-34.35,0,*6A
1486231562.76,3392,11.13,72396.8,-6.53,-34.19,-34.53,0,*65
1486231563.99,3393,11.19,72396.3,-6.55,-34.13,-34.19,0,*66
1486231565.22,3394,11.13,72392.5,-6.55,-34.13,-34.19,0,*61
1486231566.43,3395,11.19,72396.8,-6.53,-34.25,-34.41,0,*6E
1486231567.68,3396,11.19,72402.0,-6.53,-34.35,-34.71,0,*6F
1486231568.91,3397,11.19,72402.8,-6.53,-34.41,-34.71,0,*6D
1486231570.15,3398,11.19,72402.3,-6.55,-34.53,-34.71,0,*67
1486231571.38,3399,11.13,72394.8,-6.55,-34.53,-34.77,0,*60
1486231572.59,3400,11.19,72398.8,-6.55,-34.41,-34.71,0,*62
1486231573.82,3401,11.13,72398.8,-6.55,-34.35,-34.71,0,*60
1486231575.05,3402,11.19,72396.8,-6.55,-34.35,-34.59,0,*69
1486231576.27,3403,11.13,72396.0,-6.55,-34.19,-34.41,0,*6F
1486231577.5,3404,11.19,72402.0,-6.55,-34.19,-34.41,0,*68
1486231578.73,3405,11.13,72394.3,-6.55,-34.13,-34.35,0,*60
1486231579.95,3406,11.13,72394.3,-6.55,-34.13,-34.19,0,*6D
1486231581.18,3407,11.19,72398.5,-6.55,-34.13,-34.19,0,*6C
1486231582.41,3408,11.19,72394.3,-6.55,-34.13,-34.19,0,*63
1486231583.63,3409,11.13,72396.0,-6.55,-34.13,-34.35,0,*6C
1486231584.86,3410,11.19,72406.0,-6.55,-34.19,-34.59,0,*64
1486231586.09,3411,11.13,72412.0,-6.53,-34.41,-34.71,0,*64
1486231587.31,3412,11.13,72404.3,-6.55,-34.19,-34.41,0,*6F
1486231588.54,3413,11.13,72396.8,-6.55,-34.13,-34.35,0,*67
1486231589.79,3414,11.13,72396.0,-6.55,-34.01,-34.19,0,*6D
1486231591.05,3415,11.13,72410.5,-6.55,-34.19,-34.53,0,*6B
1486231592.28,3416,11.13,72410.8,-6.55,-34.25,-34.53,0,*67
1486231593.51,3417,11.13,72412.3,-6.55,-34.35,-34.71,0,*67
1486231594.76,3418,11.19,72418.5,-6.53,-34.19,-34.41,0,*63
1486231595.99,3419,11.19,72416.3,-6.55,-34.25,-34.53,0,*68
1486231597.19,3420,11.13,72414.8,-6.55,-34.25,-34.59,0,*68
1486231598.44,3421,11.13,72412.3,-6.53,-34.35,-34.59,0,*6E
1486231599.7,3422,11.19,72412.8,-6.55,-34.19,-34.53,0,*6F
1486231600.9,3423,11.13,72406.5,-6.55,-34.25,-34.59,0,*6B
1486231602.11,3424,11.19,72410.5,-6.55,-34.41,-34.71,0,*64
1486231603.34,3425,11.13,72412.0,-6.55,-34.35,-34.71,0,*66
1486231604.6,3426,11.19,72412.8,-6.55,-34.35,-34.53,0,*65
1486231605.85,3427,11.13,72410.8,-6.53,-34.53,-34.71,0,*62
1486231607.07,3428,11.13,72408.0,-6.55,-34.59,-34.71,0,*61
1486231608.28,3429,11.19,72408.5,-6.55,-34.59,-34.77,0,*66
1486231609.49,3430,11.19,72410.5,-6.55,-34.41,-34.77,0,*67
1486231610.72,3431,11.19,72414.3,-6.55,-34.53,-34.77,0,*65
1486231611.95,3432,11.19,72410.3,-6.55,-34.35,-34.71,0,*60
1486231613.21,3433,11.13,72406.8,-6.55,-34.19,-34.53,0,*6F
1486231614.41,3434,11.19,72410.3,-6.55,-34.25,-34.41,0,*64
1486231615.61,3435,11.13,72408.8,-6.55,-34.41,-34.59,0,*6E
1486231616.82,3436,11.13,72402.0,-6.55,-34.41,-34.77,0,*61
1486231618.08,3437,11.19,72408.8,-6.57,-34.59,-34.83,0,*60
1486231619.31,3438,11.13,72416.0,-6.59,-34.59,-34.83,0,*61
1486231620.57,3439,11.19,72416.8,-6.57,-34.19,-34.47,0,*62
1486231621.82,3440,11.13,72408.0,-6.57,-34.19,-34.41,0,*6A
1486231623.05,3441,11.13,72402.5,-6.59,-34.19,-34.41,0,*65
1486231624.32,3442,11.13,72406.3,-6.57,-34.59,-34.65,0,*6A
1486231625.56,3443,11.13,72402.8,-6.57,-34.47,-34.77,0,*67
1486231626.79,3444,11.13,72410.8,-6.57,-34.25,-34.59,0,*68
1486231628.04,3445,11.13,72410.5,-6.57,-34.19,-34.25,0,*6D
1486231629.29,3446,11.13,72408.8,-6.57,-34.19,-34.25,0,*6E
1486231630.56,3447,11.13,72406.0,-6.57,-34.19,-34.19,0,*60
1486231631.79,3448,11.13,72396.0,-6.57,-34.07,-34.25,0,*6F
1486231633.05,3449,11.13,72398.0,-6.53,-34.01,-34.13,0,*69
1486231634.25,3450,11.19,72398.5,-6.55,-33.83,-33.95,0,*63
1486231635.45,3451,11.19,72404.5,-6.55,-33.83,-33.95,0,*62
1486231636.65,3452,11.19,72414.0,-6.55,-33.95,-33.95,0,*66
1486231637.92,3453,11.13,72406.0,-6.53,-34.19,-34.35,0,*6F
1486231639.13,3454,11.19,72414.0,-6.55,-34.41,-34.59,0,*69
1486231640.32,3455,11.19,72406.5,-6.55,-34.25,-34.41,0,*63
1486231641.55,3456,11.13,72408.0,-6.55,-34.13,-34.19,0,*68
1486231642.77,3457,11.13,72398.3,-6.55,-33.95,-34.19,0,*60
1486231643.98,3458,11.13,72398.5,-6.55,-33.95,-34.13,0,*65
1486231645.18,3459,11.13,72398.8,-6.55,-33.67,-33.83,0,*67
1486231646.42,3460,11.19,72396.0,-6.55,-33.83,-34.01,0,*6A
1486231647.65,3461,11.13,72394.5,-6.55,-33.95,-34.01,0,*6C
1486231648.88,3462,11.13,72396.5,-6.55,-33.95,-34.01,0,*6F
1486231650.11,3463,11.13,72400.5,-6.55,-34.13,-34.19,0,*6E
1486231651.38,3464,11.13,72402.8,-6.53,-34.01,-34.19,0,*6C
1486231652.65,3465,11.19,72404.3,-6.53,-34.19,-34.35,0,*6A
1486231653.88,3466,11.13,72394.5,-6.55,-34.13,-34.35,0,*65
1486231655.16,3467,11.13,72394.5,-6.53,-34.19,-34.53,0,*68
1486231656.4,3468,11.13,72402.5,-6.53,-34.19,-34.41,0,*64
1486231657.62,3469,11.13,72400.0,-6.55,-34.19,-34.41,0,*63
1486231658.85,3470,11.19,72402.8,-6.55,-34.19,-34.41,0,*6B
1486231660.06,3471,11.19,72412.8,-6.55,-34.13,-34.13,0,*67
1486231661.26,3472,11.13,72418.3,-6.55,-34.13,-34.41,0,*63
1486231662.53,3473,11.19,72418.8,-6.53,-34.01,-34.19,0,*6A
1486231663.78,3474,11.13,72398.8,-6.53,-33.67,-33.77,0,*65
1486231665.01,3475,11.13,72404.8,-6.53,-33.83,-33.83,0,*65
1486231666.25,3476,11.19,72418.3,-6.53,-33.77,-33.95,0,*6A
1486231667.5,3477,11.13,72412.0,-6.51,-33.89,-33.77,0,*64
1486231668.73,3478,11.13,72416.5,-6.51,-33.77,-33.95,0,*66
1486231669.98,3479,11.13,72414.0,-6.53,-33.77,-33.83,0,*62
1486231671.2,3480,11.13,72392.5,-6.47,-33.89,-34.07,0,*6B
1486231672.4,3481,11.13,72392.3,-6.51,-33.95,-34.13,0,*65
1486231673.67,3482,11.13,72392.5,-6.45,-33.89,-34.01,0,*6D
1486231674.88,3483,11.13,72392.3,-6.51,-34.07,-34.13,0,*6B
1486231676.08,3484,11.13,72386.5,-6.51,-34.07,-34.13,0,*6C
1486231677.28,3485,11.19,72396.5,-6.51,-33.95,-34.13,0,*61
1486231678.51,3486,11.13,72398.3,-6.51,-34.07,-34.31,0,*6E
1486231679.72,3487,11.13,72398.3,-6.51,-34.07,-34.13,0,*6F
1486231680.95,3488,11.13,72398.5,-6.47,-34.01,-34.07,0,*64
1486231682.2,3489,11.13,72396.0,-6.47,-33.89,-34.01,0,*64
1486231683.42,3490,11.13,72394.3,-6.47,-33.89,-34.07,0,*6A
1486231684.68,3491,11.13,72388.3,-6.47,-34.01,-34.01,0,*6A
1486231685.9,3492,11.13,72394.3,-6.47,-34.07,-34.31,0,*6C
1486231687.13,3493,11.19,72392.0,-6.47,-33.83,-33.89,0,*62
1486231688.38,3494,11.13,72396.5,-6.47,-33.89,-33.89,0,*6F
1486231689.6,3495,11.13,72398.3,-6.47,-34.01,-34.25,0,*68
1486231690.82,3496,11.13,72406.0,-6.47,-34.01,-34.41,0,*69
1486231692.05,3497,11.13,72402.3,-6.47,-34.07,-34.31,0,*69
1486231693.3,3498,11.13,72404.5,-6.45,-34.07,-34.31,0,*64
1486231694.56,3499,11.13,72404.0,-6.51,-34.19,-34.53,0,*6B
1486231695.79,3500,11.13,72402.8,-6.47,-34.31,-34.47,0,*62
1486231697.01,3501,11.13,72402.8,-6.47,-34.01,-34.25,0,*64
1486231698.26,3502,11.13,72400.5,-6.45,-34.07,-34.31,0,*66
1486231699.46,3503,11.13,72410.3,-6.47,-34.07,-34.41,0,*62
1486231700.69,3504,11.13,72406.8,-6.47,-34.07,-34.31,0,*62
1486231701.94,3505,11.13,72416.5,-6.45,-34.07,-34.31,0,*61